Regional Weather Roundup
Issued by NWS

Home | Current Version | Previous Version | Text Only | Print | Product List | Glossary Off
Versions: 1 2 3 4 5 6 7 8 9 10 11 12 13 14 15 16 17 18 19 20 21 22 23 24 25 26 27 28 29 30 31 32 33 34 35 36 37 38 39 40 41 42 43 44 45 46 47 48 49 50

000
ASUS43 KLSX 281707
RWRMO

WEATHER SUMMARY FOR MISSOURI
NATIONAL WEATHER SERVICE SPRINGFIELD MO
1200 PM CDT THU AUG 28 2014

NOTE: "FAIR" INDICATES FEW OR NO CLOUDS BELOW 12,000 FEET WITH NO
       SIGNIFICANT WEATHER AND/OR OBSTRUCTIONS TO VISIBILITY.
       CURRENT SKY AND/OR WEATHER CONDITIONS ARE NOT AVAILABLE FOR
       CHILLICOTHE AND FARMINGTON.

MOZ001>031-035>038-043-044-053-054-281800-
...NORTHERN AND WESTERN MISSOURI...

CITY           SKY/WX    TMP DP  RH WIND       PRES   REMARKS
KANSAS CTY INT MOSUNNY   86  72  62 SW8       29.97F HX  92
KANSAS C DTWN  MOSUNNY   89  70  53 W10       29.96F HX  94
LEE`S SUMMIT   MOSUNNY   84  72  67 S5        29.98F
ST JOSEPH      MOSUNNY   83  73  72 CALM      29.96F
CHILLICOTHE      N/A     74  72  93 CALM      30.01S
KIRKSVILLE     PTSUNNY   82  73  74 VRB5      30.01F

$$
MOZ066>068-077>081-088>096-101>105-281800-
...SOUTHWEST MISSOURI...

CITY           SKY/WX    TMP DP  RH WIND       PRES   REMARKS
SPRINGFIELD    SUNNY     87  64  46 S9        30.03F
JOPLIN         MOSUNNY   86  66  51 S8        30.00F

$$
MOZ032>034-039>042-045>050-055>058-069>072-281800-
...CENTRAL MISSOURI...

CITY           SKY/WX    TMP DP  RH WIND       PRES   REMARKS
COLUMBIA       SUNNY     88  69  53 S9        30.02F HX  92
JEFFERSON CITY SUNNY     88  69  53 S12       30.00F HX  92
ROLLA          MOSUNNY   88  68  51 SE9       30.03F HX  91
SEDALIA        MOSUNNY   87  72  60 S9        30.01F HX  93
WHITEMAN AFB   MOSUNNY   86  73  65 S9        29.99F HX  92
OSAGE BEACH    MOSUNNY   90  68  48 S10       30.02F HX  93

$$
MOZ051-052-059>065-281800-
...EAST CENTRAL MISSOURI...

CITY           SKY/WX    TMP DP  RH WIND       PRES   REMARKS
ST LOUIS INTL  MOSUNNY   88  72  58 VRB7      30.04F HX  94
SPIRIT OF STL  MOSUNNY   86  73  65 S3        30.02F HX  93
ST CHARLES     SUNNY     85  71  63 S5        30.02F HX  90

$$
MOZ072>076-082>087-097>100-106>115-281800-
...SOUTH CENTRAL AND SOUTHEAST MISSOURI...

CITY           SKY/WX    TMP DP  RH WIND       PRES   REMARKS
CAPE GIRARDEAU SUNNY     87  74  64 CALM      30.02F HX  95
FARMINGTON     MOSUNNY   88  72  58 S9        30.06F HX  94
POPLAR BLUFF   SUNNY     88  68  51 SE6       30.01F HX  91
WEST PLAINS    SUNNY     86  62  44 S10       30.07F

$$


USA.gov is the U.S. government's official web portal to all federal, state and local government web resources and services.